Year,Month,Day,Hour,Minute,Value (Times are PST for temperature in C)
2005,09,23,00,00,8.50
2005,09,23,00,01,8.50
2005,09,23,00,02,8.50
2005,09,23,00,03,8.50
2005,09,23,00,04,8.40
2005,09,23,00,05,8.40
2005,09,23,00,06,8.40
2005,09,23,00,07,8.30
2005,09,23,00,08,8.30
2005,09,23,00,09,8.30
2005,09,23,00,10,8.20
2005,09,23,00,11,8.20
2005,09,23,00,12,8.20
2005,09,23,00,13,8.20
2005,09,23,00,14,8.10
2005,09,23,00,15,8.10
2005,09,23,00,16,8.10
2005,09,23,00,17,8.10
2005,09,23,00,18,8.00
2005,09,23,00,19,8.00
2005,09,23,00,20,8.00
2005,09,23,00,21,8.00
2005,09,23,00,22,8.00
2005,09,23,00,23,8.00
2005,09,23,00,24,8.00
2005,09,23,00,25,7.90
2005,09,23,00,26,7.90
2005,09,23,00,27,7.90
2005,09,23,00,28,7.90
2005,09,23,00,29,7.90
2005,09,23,00,30,7.90
2005,09,23,00,31,7.90
2005,09,23,00,32,7.80
2005,09,23,00,33,7.80
2005,09,23,00,34,7.80
2005,09,23,00,35,7.80
2005,09,23,00,36,7.80
2005,09,23,00,37,7.80
2005,09,23,00,38,7.80
2005,09,23,00,39,7.80
2005,09,23,00,40,7.80
2005,09,23,00,41,7.80
2005,09,23,00,42,7.80
2005,09,23,00,43,7.80
2005,09,23,00,44,7.90
2005,09,23,00,45,7.90
2005,09,23,00,46,8.00
2005,09,23,00,47,8.00
2005,09,23,00,48,8.00
2005,09,23,00,49,8.00
2005,09,23,00,50,8.10
2005,09,23,00,51,8.10
2005,09,23,00,52,8.10
2005,09,23,00,53,8.20
2005,09,23,00,54,8.20
2005,09,23,00,55,8.20
2005,09,23,00,56,8.20
2005,09,23,00,57,8.20
2005,09,23,00,58,8.30
2005,09,23,00,59,8.30
2005,09,23,01,00,8.30
2005,09,23,01,01,8.30
2005,09,23,01,02,8.30
2005,09,23,01,03,8.30
2005,09,23,01,04,8.30
2005,09,23,01,05,8.30
2005,09,23,01,06,8.30
2005,09,23,01,07,8.30
2005,09,23,01,08,8.20
2005,09,23,01,09,8.20
2005,09,23,01,10,8.20
2005,09,23,01,11,8.20
2005,09,23,01,12,8.20
2005,09,23,01,13,8.20
2005,09,23,01,14,8.20
2005,09,23,01,15,8.20
2005,09,23,01,16,8.20
2005,09,23,01,17,8.20
2005,09,23,01,18,8.20
2005,09,23,01,19,8.20
2005,09,23,01,20,8.10
2005,09,23,01,21,8.10
2005,09,23,01,22,8.10
2005,09,23,01,23,8.10
2005,09,23,01,24,8.10
2005,09,23,01,25,8.00
2005,09,23,01,26,8.00
2005,09,23,01,27,8.00
2005,09,23,01,28,8.00
2005,09,23,01,29,7.90
2005,09,23,01,30,7.90
2005,09,23,01,31,7.80
2005,09,23,01,32,7.80
2005,09,23,01,33,7.80
2005,09,23,01,34,7.80
2005,09,23,01,35,7.80
2005,09,23,01,36,7.70
2005,09,23,01,37,7.70
2005,09,23,01,38,7.70
2005,09,23,01,39,7.60
2005,09,23,01,40,7.60
2005,09,23,01,41,7.60
2005,09,23,01,42,7.60
2005,09,23,01,43,7.50
2005,09,23,01,44,7.50
2005,09,23,01,45,7.50
2005,09,23,01,46,7.50
2005,09,23,01,47,7.40
2005,09,23,01,48,7.40
2005,09,23,01,49,7.40
2005,09,23,01,50,7.40
2005,09,23,01,51,7.30
2005,09,23,01,52,7.30
2005,09,23,01,53,7.30
2005,09,23,01,54,7.30
2005,09,23,01,55,7.30
2005,09,23,01,56,7.30
2005,09,23,01,57,7.30
2005,09,23,01,58,7.30
2005,09,23,01,59,7.30
2005,09,23,02,00,7.30
2005,09,23,02,01,7.30
2005,09,23,02,02,7.30
2005,09,23,02,03,7.30
2005,09,23,02,04,7.30
2005,09,23,02,05,7.30
2005,09,23,02,06,7.30
2005,09,23,02,07,7.30
2005,09,23,02,08,7.30
2005,09,23,02,09,7.30
2005,09,23,02,10,7.30
2005,09,23,02,11,7.30
2005,09,23,02,12,7.30
2005,09,23,02,13,7.30
2005,09,23,02,14,7.30
2005,09,23,02,15,7.30
2005,09,23,02,16,7.30
2005,09,23,02,17,7.30
2005,09,23,02,18,7.30
2005,09,23,02,19,7.30
2005,09,23,02,20,7.30
2005,09,23,02,21,7.40
2005,09,23,02,22,7.40
2005,09,23,02,23,7.30
2005,09,23,02,24,7.30
2005,09,23,02,25,7.30
2005,09,23,02,26,7.30
2005,09,23,02,27,7.30
2005,09,23,02,28,7.30
2005,09,23,02,29,7.40
2005,09,23,02,30,7.50
2005,09,23,02,31,7.50
2005,09,23,02,32,7.60
2005,09,23,02,33,7.60
2005,09,23,02,34,7.70
2005,09,23,02,35,7.70
2005,09,23,02,36,7.80
2005,09,23,02,37,7.80
2005,09,23,02,38,7.90
2005,09,23,02,39,7.90
2005,09,23,02,40,7.90
2005,09,23,02,41,8.00
2005,09,23,02,42,8.00
2005,09,23,02,43,8.00
2005,09,23,02,44,8.00
2005,09,23,02,45,8.00
2005,09,23,02,46,8.00
2005,09,23,02,47,8.10
2005,09,23,02,48,8.20
2005,09,23,02,49,8.30
2005,09,23,02,50,8.40
2005,09,23,02,51,8.50
2005,09,23,02,52,8.50
2005,09,23,02,53,8.60
2005,09,23,02,54,8.60
2005,09,23,02,55,8.60
2005,09,23,02,56,8.70
2005,09,23,02,57,8.70
2005,09,23,02,58,8.70
2005,09,23,02,59,8.80
2005,09,23,03,00,8.80
2005,09,23,03,01,8.90
2005,09,23,03,02,8.90
2005,09,23,03,03,9.00
2005,09,23,03,04,9.10
2005,09,23,03,05,9.10
2005,09,23,03,06,9.20
2005,09,23,03,07,9.20
2005,09,23,03,08,9.20
2005,09,23,03,09,9.30
2005,09,23,03,10,9.30
2005,09,23,03,11,9.30
2005,09,23,03,12,9.30
2005,09,23,03,13,9.30
2005,09,23,03,14,9.30
2005,09,23,03,15,9.30
2005,09,23,03,16,9.30
2005,09,23,03,17,9.30
2005,09,23,03,18,9.30
2005,09,23,03,19,9.20
2005,09,23,03,20,9.20
2005,09,23,03,21,9.20
2005,09,23,03,22,9.20
2005,09,23,03,23,9.10
2005,09,23,03,24,9.10
2005,09,23,03,25,9.10
2005,09,23,03,26,9.10
2005,09,23,03,27,9.10
2005,09,23,03,28,9.00
2005,09,23,03,29,9.00
2005,09,23,03,30,9.00
2005,09,23,03,31,9.00
2005,09,23,03,32,9.00
2005,09,23,03,33,9.00
2005,09,23,03,34,9.00
2005,09,23,03,35,9.00
2005,09,23,03,36,9.00
2005,09,23,03,37,9.00
2005,09,23,03,38,9.00
2005,09,23,03,39,9.00
2005,09,23,03,40,8.90
2005,09,23,03,41,8.90
2005,09,23,03,42,8.90
2005,09,23,03,43,8.90
2005,09,23,03,44,8.90
2005,09,23,03,45,8.80
2005,09,23,03,46,8.80
2005,09,23,03,47,8.80
2005,09,23,03,48,8.80
2005,09,23,03,49,8.70
2005,09,23,03,50,8.70
2005,09,23,03,51,8.70
2005,09,23,03,52,8.70
2005,09,23,03,53,8.70
2005,09,23,03,54,8.70
2005,09,23,03,55,8.70
2005,09,23,03,56,8.70
2005,09,23,03,57,8.70
2005,09,23,03,58,8.70
2005,09,23,03,59,8.70
2005,09,23,04,00,8.60
2005,09,23,04,01,8.60
2005,09,23,04,02,8.60
2005,09,23,04,03,8.60
2005,09,23,04,04,8.50
2005,09,23,04,05,8.50
2005,09,23,04,06,8.50
2005,09,23,04,07,8.50
2005,09,23,04,08,8.50
2005,09,23,04,09,8.50
2005,09,23,04,10,8.40
2005,09,23,04,11,8.40
2005,09,23,04,12,8.40
2005,09,23,04,13,8.40
2005,09,23,04,14,8.40
2005,09,23,04,15,8.40
2005,09,23,04,16,8.40
2005,09,23,04,17,8.30
2005,09,23,04,18,8.30
2005,09,23,04,19,8.30
2005,09,23,04,20,8.30
2005,09,23,04,21,8.30
2005,09,23,04,22,8.30
2005,09,23,04,23,8.30
2005,09,23,04,24,8.30
2005,09,23,04,25,8.20
2005,09,23,04,26,8.00
2005,09,23,04,27,7.80
2005,09,23,04,28,7.50
2005,09,23,04,29,7.20
2005,09,23,04,30,7.00
2005,09,23,04,31,6.90
2005,09,23,04,32,6.80
2005,09,23,04,33,6.70
2005,09,23,04,34,6.60
2005,09,23,04,35,6.60
2005,09,23,04,36,6.60
2005,09,23,04,37,6.60
2005,09,23,04,38,6.60
2005,09,23,04,39,6.60
2005,09,23,04,40,6.60
2005,09,23,04,41,6.70
2005,09,23,04,42,6.80
2005,09,23,04,43,7.00
2005,09,23,04,44,7.10
2005,09,23,04,45,7.20
2005,09,23,04,46,7.30
2005,09,23,04,47,7.30
2005,09,23,04,48,7.30
2005,09,23,04,49,7.40
2005,09,23,04,50,7.40
2005,09,23,04,51,7.50
2005,09,23,04,52,7.50
2005,09,23,04,53,7.60
2005,09,23,04,54,7.70
2005,09,23,04,55,7.70
2005,09,23,04,56,7.80
2005,09,23,04,57,7.80
2005,09,23,04,58,7.80
2005,09,23,04,59,7.80
2005,09,23,05,00,7.80
2005,09,23,05,01,7.80
2005,09,23,05,02,7.80
2005,09,23,05,03,7.70
2005,09,23,05,04,7.70
2005,09,23,05,05,7.70
2005,09,23,05,06,7.60
2005,09,23,05,07,7.60
2005,09,23,05,08,7.60
2005,09,23,05,09,7.50
2005,09,23,05,10,7.50
2005,09,23,05,11,7.50
2005,09,23,05,12,7.30
2005,09,23,05,13,7.30
2005,09,23,05,14,7.30
2005,09,23,05,15,7.20
2005,09,23,05,16,7.20
2005,09,23,05,17,7.10
2005,09,23,05,18,7.10
2005,09,23,05,19,7.00
2005,09,23,05,20,7.00
2005,09,23,05,21,7.00
2005,09,23,05,22,7.00
2005,09,23,05,23,6.90
2005,09,23,05,24,6.90
2005,09,23,05,25,7.00
2005,09,23,05,26,7.00
2005,09,23,05,27,7.00
2005,09,23,05,28,7.00
2005,09,23,05,29,7.00
2005,09,23,05,30,6.90
2005,09,23,05,31,6.90
2005,09,23,05,32,6.90
2005,09,23,05,33,6.90
2005,09,23,05,34,6.80
2005,09,23,05,35,6.80
2005,09,23,05,36,6.80
2005,09,23,05,37,6.80
2005,09,23,05,38,6.80
2005,09,23,05,39,6.80
2005,09,23,05,40,6.80
2005,09,23,05,41,6.80
2005,09,23,05,42,6.80
2005,09,23,05,43,6.80
2005,09,23,05,44,6.80
2005,09,23,05,45,6.80
2005,09,23,05,46,6.80
2005,09,23,05,47,6.80
2005,09,23,05,48,6.80
2005,09,23,05,49,6.80
2005,09,23,05,50,6.80
2005,09,23,05,51,6.80
2005,09,23,05,52,6.70
2005,09,23,05,53,6.70
2005,09,23,05,54,6.70
2005,09,23,05,55,6.60
2005,09,23,05,56,6.60
2005,09,23,05,57,6.60
2005,09,23,05,58,6.60
2005,09,23,05,59,6.60
2005,09,23,06,00,6.60
2005,09,23,06,01,6.60
2005,09,23,06,02,6.60
2005,09,23,06,03,6.60
2005,09,23,06,04,6.60
2005,09,23,06,05,6.60
2005,09,23,06,06,6.60
2005,09,23,06,07,6.40
2005,09,23,06,08,6.40
2005,09,23,06,09,6.30
2005,09,23,06,10,6.20
2005,09,23,06,11,6.20
2005,09,23,06,12,6.20
2005,09,23,06,13,6.10
2005,09,23,06,14,6.10
2005,09,23,06,15,6.00
2005,09,23,06,16,6.00
2005,09,23,06,17,6.00
2005,09,23,06,18,6.00
2005,09,23,06,19,5.90
2005,09,23,06,20,6.00
2005,09,23,06,21,6.10
2005,09,23,06,22,6.20
2005,09,23,06,23,6.20
2005,09,23,06,24,6.30
2005,09,23,06,25,6.30
2005,09,23,06,26,6.40
2005,09,23,06,27,6.50
2005,09,23,06,28,6.60
2005,09,23,06,29,6.60
2005,09,23,06,30,6.70
2005,09,23,06,31,6.80
2005,09,23,06,32,6.80
2005,09,23,06,33,6.80
2005,09,23,06,34,6.80
2005,09,23,06,35,6.80
2005,09,23,06,36,6.80
2005,09,23,06,37,6.80
2005,09,23,06,38,6.80
2005,09,23,06,39,6.80
2005,09,23,06,40,6.80
2005,09,23,06,41,6.80
2005,09,23,06,42,6.70
2005,09,23,06,43,6.70
2005,09,23,06,44,6.70
2005,09,23,06,45,6.60
2005,09,23,06,46,6.60
2005,09,23,06,47,6.60
2005,09,23,06,48,6.60
2005,09,23,06,49,6.50
2005,09,23,06,50,6.40
2005,09,23,06,51,6.40
2005,09,23,06,52,6.30
2005,09,23,06,53,6.30
2005,09,23,06,54,6.20
2005,09,23,06,55,6.20
2005,09,23,06,56,6.20
2005,09,23,06,57,6.20
2005,09,23,06,58,6.20
2005,09,23,06,59,6.10
2005,09,23,07,00,6.10
2005,09,23,07,01,6.10
2005,09,23,07,02,6.10
2005,09,23,07,03,6.10
2005,09,23,07,04,6.10
2005,09,23,07,05,6.10
2005,09,23,07,06,6.10
2005,09,23,07,07,6.10
2005,09,23,07,08,6.10
2005,09,23,07,09,6.10
2005,09,23,07,10,6.10
2005,09,23,07,11,6.10
2005,09,23,07,12,6.20
2005,09,23,07,13,6.20
2005,09,23,07,14,6.20
2005,09,23,07,15,6.20
2005,09,23,07,16,6.20
2005,09,23,07,17,6.20
2005,09,23,07,18,6.30
2005,09,23,07,19,6.40
2005,09,23,07,20,6.40
2005,09,23,07,21,6.40
2005,09,23,07,22,6.50
2005,09,23,07,23,6.60
2005,09,23,07,24,6.60
2005,09,23,07,25,6.70
2005,09,23,07,26,6.70
2005,09,23,07,27,6.80
2005,09,23,07,28,6.80
2005,09,23,07,29,6.80
2005,09,23,07,30,6.90
2005,09,23,07,31,6.90
2005,09,23,07,32,7.00
2005,09,23,07,33,7.00
2005,09,23,07,34,7.10
2005,09,23,07,35,7.10
2005,09,23,07,36,7.20
2005,09,23,07,37,7.20
2005,09,23,07,38,7.20
2005,09,23,07,39,7.30
2005,09,23,07,40,7.30
2005,09,23,07,41,7.40
2005,09,23,07,42,7.50
2005,09,23,07,43,7.70
2005,09,23,07,44,7.80
2005,09,23,07,45,7.90
2005,09,23,07,46,8.10
2005,09,23,07,47,8.20
2005,09,23,07,48,8.30
2005,09,23,07,49,8.30
2005,09,23,07,50,8.50
2005,09,23,07,51,8.60
2005,09,23,07,52,8.70
2005,09,23,07,53,8.80
2005,09,23,07,54,8.90
2005,09,23,07,55,8.90
2005,09,23,07,56,9.00
2005,09,23,07,57,9.10
2005,09,23,07,58,9.10
2005,09,23,07,59,9.20
2005,09,23,08,00,9.20
2005,09,23,08,01,9.20
2005,09,23,08,02,9.30
2005,09,23,08,03,9.30
2005,09,23,08,04,9.40
2005,09,23,08,05,9.40
2005,09,23,08,06,9.50
2005,09,23,08,07,9.50
2005,09,23,08,08,9.60
2005,09,23,08,09,9.60
2005,09,23,08,10,9.70
2005,09,23,08,11,9.70
2005,09,23,08,12,9.70
2005,09,23,08,13,9.80
2005,09,23,08,14,9.90
2005,09,23,08,15,9.90
2005,09,23,08,16,10.00
2005,09,23,08,17,10.10
2005,09,23,08,18,10.20
2005,09,23,08,19,10.30
2005,09,23,08,20,10.40
2005,09,23,08,21,10.60
2005,09,23,08,22,10.60
2005,09,23,08,23,10.70
2005,09,23,08,24,10.80
2005,09,23,08,25,10.80
2005,09,23,08,26,10.80
2005,09,23,08,27,10.80
2005,09,23,08,28,10.90
2005,09,23,08,29,10.90
2005,09,23,08,30,10.90
2005,09,23,08,31,10.90
2005,09,23,08,32,10.90
2005,09,23,08,33,11.00
2005,09,23,08,34,11.10
2005,09,23,08,35,11.20
2005,09,23,08,36,11.40
2005,09,23,08,37,11.50
2005,09,23,08,38,11.60
2005,09,23,08,39,11.80
2005,09,23,08,40,11.90
2005,09,23,08,41,12.10
2005,09,23,08,42,12.20
2005,09,23,08,43,12.30
2005,09,23,08,44,12.40
2005,09,23,08,45,12.50
2005,09,23,08,46,12.50
2005,09,23,08,47,12.50
2005,09,23,08,48,12.60
2005,09,23,08,49,12.60
2005,09,23,08,50,12.70
2005,09,23,08,51,12.60
2005,09,23,08,52,12.60
2005,09,23,08,53,12.60
2005,09,23,08,54,12.60
2005,09,23,08,55,12.60
2005,09,23,08,56,12.60
2005,09,23,08,57,12.60
2005,09,23,08,58,12.60
2005,09,23,08,59,12.50
2005,09,23,09,00,12.50
2005,09,23,09,01,12.40
2005,09,23,09,02,12.40
2005,09,23,09,03,12.30
2005,09,23,09,04,12.30
2005,09,23,09,05,12.30
2005,09,23,09,06,12.30
2005,09,23,09,07,12.30
2005,09,23,09,08,12.30
2005,09,23,09,09,12.30
2005,09,23,09,10,12.30
2005,09,23,09,11,12.30
2005,09,23,09,12,12.30
2005,09,23,09,13,12.30
2005,09,23,09,14,12.30
2005,09,23,09,15,12.30
2005,09,23,09,16,12.30
2005,09,23,09,17,12.30
2005,09,23,09,18,12.30
2005,09,23,09,19,12.40
2005,09,23,09,20,12.40
2005,09,23,09,21,12.50
2005,09,23,09,22,12.50
2005,09,23,09,23,12.50
2005,09,23,09,24,12.60
2005,09,23,09,25,12.60
2005,09,23,09,26,12.60
2005,09,23,09,27,12.60
2005,09,23,09,28,12.70
2005,09,23,09,29,12.70
2005,09,23,09,30,12.70
2005,09,23,09,31,12.70
2005,09,23,09,32,12.80
2005,09,23,09,33,12.80
2005,09,23,09,34,12.80
2005,09,23,09,35,12.80
2005,09,23,09,36,12.80
2005,09,23,09,37,12.90
2005,09,23,09,38,13.00
2005,09,23,09,39,13.00
2005,09,23,09,40,13.10
2005,09,23,09,41,13.20
2005,09,23,09,42,13.20
2005,09,23,09,43,13.20
2005,09,23,09,44,13.30
2005,09,23,09,45,13.30
2005,09,23,09,46,13.30
2005,09,23,09,47,13.30
2005,09,23,09,48,13.30
2005,09,23,09,49,13.40
2005,09,23,09,50,13.50
2005,09,23,09,51,13.50
2005,09,23,09,52,13.50
2005,09,23,09,53,13.60
2005,09,23,09,54,13.60
2005,09,23,09,55,13.70
2005,09,23,09,56,13.70
2005,09,23,09,57,13.70
2005,09,23,09,58,13.70
2005,09,23,09,59,13.70
2005,09,23,10,00,13.60
2005,09,23,10,01,13.60
2005,09,23,10,02,13.60
2005,09,23,10,03,13.50
2005,09,23,10,04,13.40
2005,09,23,10,05,13.40
2005,09,23,10,06,13.40
2005,09,23,10,07,13.40
2005,09,23,10,08,13.40
2005,09,23,10,09,13.40
2005,09,23,10,10,13.40
2005,09,23,10,11,13.50
2005,09,23,10,12,13.50
2005,09,23,10,13,13.50
2005,09,23,10,14,13.60
2005,09,23,10,15,13.70
2005,09,23,10,16,13.70
2005,09,23,10,17,13.70
2005,09,23,10,18,13.80
2005,09,23,10,19,13.80
2005,09,23,10,20,13.90
2005,09,23,10,21,14.00
2005,09,23,10,22,14.10
2005,09,23,10,23,14.20
2005,09,23,10,24,14.20
2005,09,23,10,25,14.20
2005,09,23,10,26,14.20
2005,09,23,10,27,14.20
2005,09,23,10,28,14.20
2005,09,23,10,29,14.20
2005,09,23,10,30,14.20
2005,09,23,10,31,14.20
2005,09,23,10,32,14.20
2005,09,23,10,33,14.10
2005,09,23,10,34,14.00
2005,09,23,10,35,14.00
2005,09,23,10,36,13.90
2005,09,23,10,37,13.90
2005,09,23,10,38,13.80
2005,09,23,10,39,13.70
2005,09,23,10,40,13.80
2005,09,23,10,41,13.80
2005,09,23,10,42,13.90
2005,09,23,10,43,13.90
2005,09,23,10,44,13.90
2005,09,23,10,45,13.90
2005,09,23,10,46,13.90
2005,09,23,10,47,13.90
2005,09,23,10,48,13.90
2005,09,23,10,49,13.90
2005,09,23,10,50,13.90
2005,09,23,10,51,13.90
2005,09,23,10,52,13.90
2005,09,23,10,53,14.00
2005,09,23,10,54,14.10
2005,09,23,10,55,14.20
2005,09,23,10,56,14.20
2005,09,23,10,57,14.20
2005,09,23,10,58,14.30
2005,09,23,10,59,14.40
2005,09,23,11,00,14.40
2005,09,23,11,01,14.40
2005,09,23,11,02,14.40
2005,09,23,11,03,14.50
2005,09,23,11,04,14.50
2005,09,23,11,05,14.60
2005,09,23,11,06,14.60
2005,09,23,11,07,14.60
2005,09,23,11,08,14.60
2005,09,23,11,09,14.60
2005,09,23,11,10,14.60
2005,09,23,11,11,14.60
2005,09,23,11,12,14.60
2005,09,23,11,13,14.60
2005,09,23,11,14,14.60
2005,09,23,11,15,14.60
2005,09,23,11,16,14.60
2005,09,23,11,17,14.60
2005,09,23,11,18,14.50
2005,09,23,11,19,14.50
2005,09,23,11,20,14.40
2005,09,23,11,21,14.40
2005,09,23,11,22,14.40
2005,09,23,11,23,14.40
2005,09,23,11,24,14.50
2005,09,23,11,25,14.50
2005,09,23,11,26,14.60
2005,09,23,11,27,14.60
2005,09,23,11,28,14.70
2005,09,23,11,29,14.80
2005,09,23,11,30,14.90
2005,09,23,11,31,14.90
2005,09,23,11,32,14.90
2005,09,23,11,33,14.90
2005,09,23,11,34,14.90
2005,09,23,11,35,14.90
2005,09,23,11,36,14.90
2005,09,23,11,37,14.90
2005,09,23,11,38,15.00
2005,09,23,11,39,15.10
2005,09,23,11,40,15.10
2005,09,23,11,41,15.10
2005,09,23,11,42,15.10
2005,09,23,11,43,15.10
2005,09,23,11,44,15.10
2005,09,23,11,45,15.10
2005,09,23,11,46,15.10
2005,09,23,11,47,15.10
2005,09,23,11,48,15.10
2005,09,23,11,49,15.10
2005,09,23,11,50,15.20
2005,09,23,11,51,15.30
2005,09,23,11,52,15.30
2005,09,23,11,53,15.30
2005,09,23,11,54,15.40
2005,09,23,11,55,15.40
2005,09,23,11,56,15.40
2005,09,23,11,57,15.30
2005,09,23,11,58,15.30
2005,09,23,11,59,15.30
2005,09,23,12,00,15.30
2005,09,23,12,01,15.30
2005,09,23,12,02,15.40
2005,09,23,12,03,15.50
2005,09,23,12,04,15.50
2005,09,23,12,05,15.50
2005,09,23,12,06,15.50
2005,09,23,12,07,15.50
2005,09,23,12,08,15.50
2005,09,23,12,09,15.50
2005,09,23,12,10,15.50
2005,09,23,12,11,15.60
2005,09,23,12,12,15.60
2005,09,23,12,13,15.60
2005,09,23,12,14,15.60
2005,09,23,12,15,15.60
2005,09,23,12,16,15.70
2005,09,23,12,17,15.60
2005,09,23,12,18,15.60
2005,09,23,12,19,15.60
2005,09,23,12,20,15.60
2005,09,23,12,21,15.60
2005,09,23,12,22,15.60
2005,09,23,12,23,15.60
2005,09,23,12,24,15.60
2005,09,23,12,25,15.70
2005,09,23,12,26,15.70
2005,09,23,12,27,15.80
2005,09,23,12,28,15.80
2005,09,23,12,29,15.90
2005,09,23,12,30,16.00
2005,09,23,12,31,16.10
2005,09,23,12,32,16.10
2005,09,23,12,33,16.10
2005,09,23,12,34,16.10
2005,09,23,12,35,16.10
2005,09,23,12,36,16.10
2005,09,23,12,37,16.10
2005,09,23,12,38,16.10
2005,09,23,12,39,16.10
2005,09,23,12,40,16.10
2005,09,23,12,41,16.10
2005,09,23,12,42,16.10
2005,09,23,12,43,16.10
2005,09,23,12,44,16.10
2005,09,23,12,45,16.10
2005,09,23,12,46,16.20
2005,09,23,12,47,16.20
2005,09,23,12,48,16.20
2005,09,23,12,49,16.20
2005,09,23,12,50,16.10
2005,09,23,12,51,16.10
2005,09,23,12,52,16.10
2005,09,23,12,53,15.90
2005,09,23,12,54,15.90
2005,09,23,12,55,15.80
2005,09,23,12,56,15.80
2005,09,23,12,57,15.80
2005,09,23,12,58,15.80
2005,09,23,12,59,15.80
2005,09,23,13,00,15.80
2005,09,23,13,01,15.80
2005,09,23,13,02,15.80
2005,09,23,13,03,15.80
2005,09,23,13,04,15.80
2005,09,23,13,05,15.80
2005,09,23,13,06,15.80
2005,09,23,13,07,15.80
2005,09,23,13,08,15.80
2005,09,23,13,09,15.80
2005,09,23,13,10,15.80
2005,09,23,13,11,15.80
2005,09,23,13,12,15.80
2005,09,23,13,13,15.80
2005,09,23,13,14,15.70
2005,09,23,13,15,15.70
2005,09,23,13,16,15.80
2005,09,23,13,17,15.90
2005,09,23,13,18,16.00
2005,09,23,13,19,16.10
2005,09,23,13,20,16.10
2005,09,23,13,21,16.10
2005,09,23,13,22,16.10
2005,09,23,13,23,16.10
2005,09,23,13,24,16.00
2005,09,23,13,25,15.90
2005,09,23,13,26,15.90
2005,09,23,13,27,15.90
2005,09,23,13,28,15.90
2005,09,23,13,29,15.90
2005,09,23,13,30,15.90
2005,09,23,13,31,15.90
2005,09,23,13,32,15.90
2005,09,23,13,33,15.80
2005,09,23,13,34,15.80
2005,09,23,13,35,15.80
2005,09,23,13,36,15.80
2005,09,23,13,37,15.80
2005,09,23,13,38,15.80
2005,09,23,13,39,15.80
2005,09,23,13,40,15.80
2005,09,23,13,41,15.90
2005,09,23,13,42,15.90
2005,09,23,13,43,16.00
2005,09,23,13,44,16.10
2005,09,23,13,45,16.10
2005,09,23,13,46,16.30
2005,09,23,13,47,16.40
2005,09,23,13,48,16.60
2005,09,23,13,49,16.70
2005,09,23,13,50,16.70
2005,09,23,13,51,17.00
2005,09,23,13,52,17.10
2005,09,23,13,53,17.20
2005,09,23,13,54,17.20
2005,09,23,13,55,17.20
2005,09,23,13,56,17.20
2005,09,23,13,57,17.10
2005,09,23,13,58,17.10
2005,09,23,13,59,17.20
2005,09,23,14,00,17.20
2005,09,23,14,01,17.10
2005,09,23,14,02,17.00
2005,09,23,14,03,17.00
2005,09,23,14,04,17.00
2005,09,23,14,05,17.20
2005,09,23,14,06,17.30
2005,09,23,14,07,17.40
2005,09,23,14,08,17.50
2005,09,23,14,09,17.50
2005,09,23,14,10,17.60
2005,09,23,14,11,17.40
2005,09,23,14,12,17.20
2005,09,23,14,13,17.10
2005,09,23,14,14,16.80
2005,09,23,14,15,16.60
2005,09,23,14,16,16.40
2005,09,23,14,17,16.30
2005,09,23,14,18,16.20
2005,09,23,14,19,16.10
2005,09,23,14,20,16.00
2005,09,23,14,21,16.00
2005,09,23,14,22,16.10
2005,09,23,14,23,16.10
2005,09,23,14,24,16.20
2005,09,23,14,25,16.30
2005,09,23,14,26,16.30
2005,09,23,14,27,16.20
2005,09,23,14,28,16.10
2005,09,23,14,29,15.90
2005,09,23,14,30,15.80
2005,09,23,14,31,15.80
2005,09,23,14,32,15.80
2005,09,23,14,33,15.80
2005,09,23,14,34,15.80
2005,09,23,14,35,15.80
2005,09,23,14,36,15.80
2005,09,23,14,37,15.80
2005,09,23,14,38,15.90
2005,09,23,14,39,15.90
2005,09,23,14,40,15.90
2005,09,23,14,41,15.90
2005,09,23,14,42,16.10
2005,09,23,14,43,16.20
2005,09,23,14,44,16.30
2005,09,23,14,45,16.50
2005,09,23,14,46,16.60
2005,09,23,14,47,16.70
2005,09,23,14,48,16.70
2005,09,23,14,49,16.70
2005,09,23,14,50,16.60
2005,09,23,14,51,16.60
2005,09,23,14,52,16.50
2005,09,23,14,53,16.40
2005,09,23,14,54,16.40
2005,09,23,14,55,16.50
2005,09,23,14,56,16.70
2005,09,23,14,57,16.70
2005,09,23,14,58,16.60
2005,09,23,14,59,16.60
2005,09,23,15,00,16.60
2005,09,23,15,01,16.60
2005,09,23,15,02,16.60
2005,09,23,15,03,16.50
2005,09,23,15,04,16.30
2005,09,23,15,05,16.10
2005,09,23,15,06,16.10
2005,09,23,15,07,16.10
2005,09,23,15,08,16.10
2005,09,23,15,09,16.30
2005,09,23,15,10,16.50
2005,09,23,15,11,16.70
2005,09,23,15,12,16.70
2005,09,23,15,13,16.80
2005,09,23,15,14,16.80
2005,09,23,15,15,16.80
2005,09,23,15,16,16.80
2005,09,23,15,17,16.80
2005,09,23,15,18,16.70
2005,09,23,15,19,16.60
2005,09,23,15,20,16.60
2005,09,23,15,21,16.50
2005,09,23,15,22,16.40
2005,09,23,15,23,16.40
2005,09,23,15,24,16.30
2005,09,23,15,25,16.20
2005,09,23,15,26,16.20
2005,09,23,15,27,16.20
2005,09,23,15,28,16.20
2005,09,23,15,29,16.30
2005,09,23,15,30,16.30
2005,09,23,15,31,16.30
2005,09,23,15,32,16.40
2005,09,23,15,33,16.40
2005,09,23,15,34,16.40
2005,09,23,15,35,16.40
2005,09,23,15,36,16.40
2005,09,23,15,37,16.50
2005,09,23,15,38,16.70
2005,09,23,15,39,16.70
2005,09,23,15,40,16.80
2005,09,23,15,41,16.80
2005,09,23,15,42,16.90
2005,09,23,15,43,17.00
2005,09,23,15,44,17.00
2005,09,23,15,45,16.90
2005,09,23,15,46,16.80
2005,09,23,15,47,16.70
2005,09,23,15,48,16.70
2005,09,23,15,49,16.70
2005,09,23,15,50,16.70
2005,09,23,15,51,16.70
2005,09,23,15,52,16.70
2005,09,23,15,53,16.80
2005,09,23,15,54,16.90
2005,09,23,15,55,17.00
2005,09,23,15,56,17.10
2005,09,23,15,57,17.20
2005,09,23,15,58,17.30
2005,09,23,15,59,17.20
2005,09,23,16,00,17.10
2005,09,23,16,01,17.00
2005,09,23,16,02,16.90
2005,09,23,16,03,16.90
2005,09,23,16,04,16.80
2005,09,23,16,05,16.70
2005,09,23,16,06,16.70
2005,09,23,16,07,16.70
2005,09,23,16,08,16.60
2005,09,23,16,09,16.60
2005,09,23,16,10,16.60
2005,09,23,16,11,16.60
2005,09,23,16,12,16.60
2005,09,23,16,13,16.40
2005,09,23,16,14,16.40
2005,09,23,16,15,16.40
2005,09,23,16,16,16.40
2005,09,23,16,17,16.40
2005,09,23,16,18,16.40
2005,09,23,16,19,16.40
2005,09,23,16,20,16.40
2005,09,23,16,21,16.40
2005,09,23,16,22,16.40
2005,09,23,16,23,16.30
2005,09,23,16,24,16.30
2005,09,23,16,25,16.40
2005,09,23,16,26,16.40
2005,09,23,16,27,16.40
2005,09,23,16,28,16.40
2005,09,23,16,29,16.40
2005,09,23,16,30,16.40
2005,09,23,16,31,16.30
2005,09,23,16,32,16.20
2005,09,23,16,33,16.20
2005,09,23,16,34,16.20
2005,09,23,16,35,16.30
2005,09,23,16,36,16.30
2005,09,23,16,37,16.30
2005,09,23,16,38,16.40
2005,09,23,16,39,16.40
2005,09,23,16,40,16.40
2005,09,23,16,41,16.40
2005,09,23,16,42,16.40
2005,09,23,16,43,16.40
2005,09,23,16,44,16.40
2005,09,23,16,45,16.40
2005,09,23,16,46,16.50
2005,09,23,16,47,16.60
2005,09,23,16,48,16.70
2005,09,23,16,49,16.70
2005,09,23,16,50,16.70
2005,09,23,16,51,16.70
2005,09,23,16,52,16.80
2005,09,23,16,53,16.80
2005,09,23,16,54,16.90
2005,09,23,16,55,16.90
2005,09,23,16,56,16.90
2005,09,23,16,57,16.90
2005,09,23,16,58,16.90
2005,09,23,16,59,16.80
2005,09,23,17,00,16.80
2005,09,23,17,01,16.70
2005,09,23,17,02,16.70
2005,09,23,17,03,16.70
2005,09,23,17,04,16.70
2005,09,23,17,05,16.70
2005,09,23,17,06,16.70
2005,09,23,17,07,16.70
2005,09,23,17,08,16.70
2005,09,23,17,09,16.70
2005,09,23,17,10,16.70
2005,09,23,17,11,16.70
2005,09,23,17,12,16.70
2005,09,23,17,13,16.70
2005,09,23,17,14,16.70
2005,09,23,17,15,16.70
2005,09,23,17,16,16.80
2005,09,23,17,17,16.90
2005,09,23,17,18,17.00
2005,09,23,17,19,17.10
2005,09,23,17,20,17.10
2005,09,23,17,21,17.10
2005,09,23,17,22,17.00
2005,09,23,17,23,17.00
2005,09,23,17,24,17.10
2005,09,23,17,25,17.10
2005,09,23,17,26,17.00
2005,09,23,17,27,17.00
2005,09,23,17,28,17.00
2005,09,23,17,29,17.00
2005,09,23,17,30,17.00
2005,09,23,17,31,16.90
2005,09,23,17,32,16.90
2005,09,23,17,33,16.90
2005,09,23,17,34,16.90
2005,09,23,17,35,16.90
2005,09,23,17,36,16.80
2005,09,23,17,37,16.80
2005,09,23,17,38,16.80
2005,09,23,17,39,16.70
2005,09,23,17,40,16.70
2005,09,23,17,41,16.60